Погода в Эркен-Халке

Россия / Карачаево-Черкесская Республика     44°22′18″N   41°56′12″E
темп.,
°C
ветер,
м/с
пор.,
м/с
влажн.,
%
обл.,
%
осадки,
мм/ч
давл.,
гПа
погр.,
м
29 января, сб
сб2900:00−8ю46765 0.0 102259
03:00−8ю347580 0.0 102147
06:00−6ю2380100 0.0 102134
09:00−4ю347598 0.0 102061
12:00+1з1182100 0.0 101996
15:00+1юв1197100 0.0 101824
18:00−2ю1191100 0.0 102010
21:00−3ююз2287100 0.0 102227
30 января, вс
вс3000:00−4ююз338092 0.0 102240
03:00−6ююз228519 0.0 102214
06:00−7ю2283100 0.0 102221
09:00−4ююв22775 0.0 102150
12:00−1в12740 0.0 1018252
15:000всв22795 0.0 1016359
18:00−5ююв22925 0.0 101612
21:00−5ю22895 0.0 101526
31 января, пн
пн3100:00−6ю2283100 0.0 101432
03:00−6ю2281100 0.0 101325
06:00−5ююв3377100 0.0 101333
09:00−2ю2377100 0.1 101248
12:00+2ююв128430 0.0 101190
15:00+1вюв119314 0.0 101120
18:00−2ююз1192100 0.0 101410
21:00−2ююв2280100 0.0 101627
1 февраля, вт
вт100:00−3ю347586 0.0 101648
03:00−3ююз2280100 0.0 101724
06:00−4ю22794 0.0 101825
09:00−3ююв22739 0.0 101954
12:00+1в226773 0.0 1017245
15:00+1в2574100 0.0 1016358
18:00−2юв1286100 0.0 101712
21:00−1юв2286100 0.0 101639
2 февраля, ср
ср200:00−1юв228790 0.0 101521
03:00−2юв2384100 0.0 101532
06:000ююв3372100 0.0 101439
09:00+2ююв3472100 0.0 101448
12:00+5ююв2282100 0.0 101249
15:00+4вюв1187100 0.0 101217
18:00+2ююв2291100 0.0 101320
21:00+1ююз2276100 0.0 101416